TOM1JD EGKK-LEIB

Flight info

Callsign TOM1JD
Flight time 2h 14m
Altitude 35000
Route SFD Y47 DRAKE L151 SITET UN859 SOPIL DCT BALAN DCT EVPOK DCT NARAK DCT GAI DCT LOMRA DCT ROCAN DCT PUMAL DCT XEPLA DCT BCN Z174 CORDA
Aircraft B738/M-SDE2E3FGHIRWXY/LB1

Departure

Time 2026-05-06 16:18
Airport London Gatwick Airport (EGKK)

Arrival

Time 2026-05-06 18:32
Airport Ibiza Airport (LEIB)
Time Latitude Longitude Altitude Speed Heading
2026-05-06 15:44 51.16062 -0.18032 204 ft 0 kts 78°
2026-05-06 16:04 51.16060 -0.18047 203 ft 4 kts 78°
2026-05-06 16:05 51.16055 -0.18089 208 ft 4 kts 78°
2026-05-06 16:05 51.16049 -0.18129 213 ft 4 kts 97°
2026-05-06 16:05 51.16060 -0.18154 212 ft 3 kts 166°
2026-05-06 16:05 51.16081 -0.18161 212 ft 3 kts 167°
2026-05-06 16:06 51.16085 -0.18162 212 ft 0 kts 167°
2026-05-06 16:08 51.16077 -0.18159 207 ft 4 kts 168°
2026-05-06 16:08 51.16027 -0.18142 213 ft 10 kts 167°
2026-05-06 16:09 51.15959 -0.18117 207 ft 10 kts 168°
2026-05-06 16:09 51.15889 -0.18092 211 ft 10 kts 168°
2026-05-06 16:09 51.15820 -0.18069 212 ft 10 kts 166°
2026-05-06 16:09 51.15753 -0.18043 208 ft 10 kts 169°
2026-05-06 16:10 51.15692 -0.18060 210 ft 9 kts 230°
2026-05-06 16:10 51.15672 -0.18157 207 ft 9 kts 257°
2026-05-06 16:10 51.15658 -0.18254 208 ft 9 kts 258°
2026-05-06 16:10 51.15645 -0.18347 208 ft 8 kts 257°
2026-05-06 16:11 51.15633 -0.18438 215 ft 8 kts 257°
2026-05-06 16:11 51.15621 -0.18524 204 ft 8 kts 258°
2026-05-06 16:11 51.15609 -0.18607 203 ft 8 kts 257°
2026-05-06 16:11 51.15598 -0.18688 204 ft 7 kts 257°
2026-05-06 16:12 51.15591 -0.18740 212 ft 7 kts 257°
2026-05-06 16:12 51.15576 -0.18801 204 ft 7 kts 232°
2026-05-06 16:12 51.15532 -0.18820 211 ft 7 kts 171°
2026-05-06 16:12 51.15487 -0.18805 203 ft 7 kts 167°
2026-05-06 16:13 51.15427 -0.18783 203 ft 12 kts 166°
2026-05-06 16:13 51.15322 -0.18746 205 ft 18 kts 167°
2026-05-06 16:13 51.15199 -0.18704 214 ft 18 kts 167°
2026-05-06 16:13 51.15119 -0.18810 206 ft 17 kts 256°
2026-05-06 16:14 51.15095 -0.18991 205 ft 16 kts 257°
2026-05-06 16:14 51.15076 -0.19130 203 ft 17 kts 259°
2026-05-06 16:14 51.15050 -0.19322 205 ft 19 kts 258°
2026-05-06 16:14 51.15017 -0.19556 210 ft 25 kts 257°
2026-05-06 16:15 51.14979 -0.19831 205 ft 25 kts 258°
2026-05-06 16:15 51.14943 -0.20091 202 ft 23 kts 257°
2026-05-06 16:15 51.14912 -0.20335 212 ft 22 kts 256°
2026-05-06 16:15 51.14873 -0.20573 211 ft 22 kts 255°
2026-05-06 16:16 51.14840 -0.20805 213 ft 21 kts 258°
2026-05-06 16:16 51.14813 -0.21032 214 ft 21 kts 261°
2026-05-06 16:16 51.14774 -0.21247 203 ft 20 kts 257°
2026-05-06 16:16 51.14706 -0.21402 203 ft 18 kts 174°
2026-05-06 16:17 51.14621 -0.21330 210 ft 18 kts 161°
2026-05-06 16:17 51.14522 -0.21221 205 ft 17 kts 115°
2026-05-06 16:17 51.14535 -0.21034 203 ft 24 kts 75°
2026-05-06 16:17 51.14621 -0.20423 204 ft 99 kts 78°
2026-05-06 16:18 51.14830 -0.18943 213 ft 172 kts 78°
2026-05-06 16:18 51.15115 -0.16820 535 ft 205 kts 77°
2026-05-06 16:18 51.15329 -0.14793 1905 ft 191 kts 81°
2026-05-06 16:18 51.15610 -0.12606 2505 ft 214 kts 73°
2026-05-06 16:19 51.15941 -0.10206 2896 ft 231 kts 84°
2026-05-06 16:19 51.15549 -0.07694 3438 ft 243 kts 120°
2026-05-06 16:19 51.14372 -0.05779 4080 ft 249 kts 145°
2026-05-06 16:19 51.12809 -0.04611 4821 ft 251 kts 164°
2026-05-06 16:20 51.11091 -0.03976 5390 ft 258 kts 169°
2026-05-06 16:20 51.10322 -0.03729 5640 ft 260 kts 170°
2026-05-06 16:20 51.08551 -0.03159 6330 ft 262 kts 167°
2026-05-06 16:20 51.06786 -0.02357 6954 ft 263 kts 166°
2026-05-06 16:21 51.04969 -0.01952 7597 ft 264 kts 179°
2026-05-06 16:21 51.03117 -0.01904 8184 ft 268 kts 182°
2026-05-06 16:21 51.01878 -0.01918 8578 ft 270 kts 182°
2026-05-06 16:21 51.00624 -0.01939 8988 ft 272 kts 182°
2026-05-06 16:22 50.98672 -0.01961 9616 ft 274 kts 181°
2026-05-06 16:22 50.96770 -0.01967 10226 ft 275 kts 181°
2026-05-06 16:22 50.94839 -0.01960 10745 ft 277 kts 181°
2026-05-06 16:22 50.92937 -0.01940 11338 ft 278 kts 181°
2026-05-06 16:23 50.90997 -0.01912 11885 ft 280 kts 181°
2026-05-06 16:23 50.89034 -0.01878 12373 ft 284 kts 181°
2026-05-06 16:23 50.87057 -0.01839 12969 ft 284 kts 181°
2026-05-06 16:23 50.85072 -0.01796 13487 ft 287 kts 181°
2026-05-06 16:24 50.83063 -0.01751 13985 ft 290 kts 181°
2026-05-06 16:24 50.81050 -0.01705 14518 ft 289 kts 181°
2026-05-06 16:24 50.79065 -0.01658 15002 ft 291 kts 181°
2026-05-06 16:24 50.77031 -0.01610 15472 ft 292 kts 181°
2026-05-06 16:25 50.75001 -0.01560 15981 ft 293 kts 181°
2026-05-06 16:25 50.72951 -0.01511 16435 ft 295 kts 182°
2026-05-06 16:25 50.70922 -0.01463 16872 ft 298 kts 181°
2026-05-06 16:25 50.68847 -0.01413 17339 ft 299 kts 181°
2026-05-06 16:26 50.66761 -0.01363 17797 ft 301 kts 181°
2026-05-06 16:26 50.64662 -0.01312 18254 ft 302 kts 181°
2026-05-06 16:26 50.62555 -0.01261 18674 ft 303 kts 181°
2026-05-06 16:26 50.60441 -0.01210 19058 ft 305 kts 181°
2026-05-06 16:27 50.58344 -0.01159 19428 ft 307 kts 181°
2026-05-06 16:27 50.56205 -0.01107 19803 ft 308 kts 181°
2026-05-06 16:27 50.54054 -0.01055 20174 ft 310 kts 181°
2026-05-06 16:27 50.51933 -0.01004 20543 ft 311 kts 181°
2026-05-06 16:28 50.49720 -0.00950 20919 ft 313 kts 181°
2026-05-06 16:28 50.47535 -0.00898 21275 ft 315 kts 181°
2026-05-06 16:28 50.45339 -0.00845 21631 ft 316 kts 181°
2026-05-06 16:28 50.43133 -0.00792 21978 ft 318 kts 181°
2026-05-06 16:29 50.40945 -0.00739 22304 ft 320 kts 181°
2026-05-06 16:29 50.38712 -0.00686 22632 ft 322 kts 181°
2026-05-06 16:29 50.36469 -0.00632 22971 ft 323 kts 181°
2026-05-06 16:29 50.34215 -0.00578 23290 ft 325 kts 181°
2026-05-06 16:30 50.31951 -0.00523 23601 ft 326 kts 181°
2026-05-06 16:30 50.30444 -0.00487 23773 ft 327 kts 181°
2026-05-06 16:30 50.27392 -0.00414 24132 ft 329 kts 181°
2026-05-06 16:30 50.25105 -0.00360 24408 ft 329 kts 181°
2026-05-06 16:31 50.22842 -0.00306 24666 ft 330 kts 181°
2026-05-06 16:31 50.20539 -0.00251 24916 ft 332 kts 181°
2026-05-06 16:31 50.18227 -0.00196 25170 ft 332 kts 181°
2026-05-06 16:31 50.15915 -0.00140 25443 ft 332 kts 181°
2026-05-06 16:32 50.13597 -0.00085 25682 ft 334 kts 181°
2026-05-06 16:32 50.11273 -0.00029 25905 ft 335 kts 180°
2026-05-06 16:32 50.08945 0.00327 26119 ft 339 kts 170°
2026-05-06 16:32 50.06650 0.01184 26375 ft 339 kts 167°
2026-05-06 16:33 50.04395 0.02097 26588 ft 340 kts 167°
2026-05-06 16:33 50.02098 0.03037 26801 ft 342 kts 167°
2026-05-06 16:33 49.99794 0.03971 27005 ft 343 kts 167°
2026-05-06 16:34 49.95164 0.05818 27423 ft 345 kts 167°
2026-05-06 16:34 49.92834 0.06737 27617 ft 346 kts 167°
2026-05-06 16:34 49.90497 0.07654 27821 ft 347 kts 167°
2026-05-06 16:34 49.88183 0.08560 28012 ft 348 kts 167°
2026-05-06 16:35 49.85837 0.09477 28206 ft 349 kts 167°
2026-05-06 16:35 49.83477 0.10398 28388 ft 350 kts 167°
2026-05-06 16:35 49.81117 0.11318 28574 ft 351 kts 167°
2026-05-06 16:35 49.78745 0.12242 28751 ft 352 kts 167°
2026-05-06 16:36 49.76369 0.13166 28924 ft 353 kts 167°
2026-05-06 16:36 49.73986 0.14093 29077 ft 354 kts 167°
2026-05-06 16:36 49.71593 0.15021 29192 ft 356 kts 167°
2026-05-06 16:36 49.69189 0.15954 29355 ft 357 kts 167°
2026-05-06 16:37 49.66816 0.16885 29529 ft 357 kts 167°
2026-05-06 16:37 49.64408 0.17857 29681 ft 358 kts 166°
2026-05-06 16:37 49.61996 0.18839 29826 ft 359 kts 166°
2026-05-06 16:37 49.59579 0.19824 29970 ft 360 kts 166°
2026-05-06 16:38 49.57159 0.20809 30093 ft 360 kts 167°
2026-05-06 16:38 49.54729 0.21794 30203 ft 362 kts 166°
2026-05-06 16:38 49.52291 0.22779 30311 ft 362 kts 167°
2026-05-06 16:39 49.47410 0.24748 30398 ft 368 kts 167°
2026-05-06 16:39 49.44931 0.25747 30512 ft 367 kts 166°
2026-05-06 16:39 49.42465 0.26738 30672 ft 366 kts 166°
2026-05-06 16:40 49.37534 0.28721 30852 ft 368 kts 166°
2026-05-06 16:40 49.35054 0.29716 30982 ft 368 kts 166°
2026-05-06 16:40 49.32571 0.30710 31037 ft 370 kts 167°
2026-05-06 16:41 49.27608 0.32741 31197 ft 372 kts 166°
2026-05-06 16:41 49.22663 0.34832 31317 ft 375 kts 166°
2026-05-06 16:42 49.17634 0.36955 31566 ft 373 kts 166°
2026-05-06 16:42 49.12610 0.39065 31709 ft 375 kts 165°
2026-05-06 16:43 49.07599 0.41161 31838 ft 377 kts 165°
2026-05-06 16:43 49.02591 0.43253 32008 ft 377 kts 165°
2026-05-06 16:44 48.97503 0.45370 32074 ft 381 kts 165°
2026-05-06 16:44 48.92393 0.47494 32302 ft 379 kts 165°
2026-05-06 16:44 48.89847 0.48551 32403 ft 378 kts 165°
2026-05-06 16:45 48.87322 0.49598 32590 ft 376 kts 165°
2026-05-06 16:45 48.82286 0.51682 32639 ft 379 kts 165°
2026-05-06 16:45 48.79744 0.52732 32759 ft 378 kts 165°
2026-05-06 16:46 48.77209 0.53762 32838 ft 378 kts 166°
2026-05-06 16:46 48.72110 0.55753 32917 ft 380 kts 166°
2026-05-06 16:46 48.69553 0.56745 33019 ft 379 kts 166°
2026-05-06 16:47 48.67001 0.57737 33112 ft 379 kts 166°
2026-05-06 16:47 48.61936 0.59710 33229 ft 379 kts 166°
2026-05-06 16:48 48.56811 0.61707 33301 ft 381 kts 166°
2026-05-06 16:48 48.54254 0.62701 33428 ft 379 kts 166°
2026-05-06 16:48 48.51691 0.63698 33435 ft 381 kts 166°
2026-05-06 16:49 48.46586 0.65762 33506 ft 382 kts 165°
2026-05-06 16:49 48.44024 0.66810 33622 ft 382 kts 165°
2026-05-06 16:49 48.41453 0.67860 33707 ft 383 kts 165°
2026-05-06 16:50 48.36337 0.69939 33786 ft 384 kts 165°
2026-05-06 16:50 48.31176 0.72027 33895 ft 383 kts 165°
2026-05-06 16:51 48.26039 0.74101 33963 ft 383 kts 165°
2026-05-06 16:51 48.20883 0.76151 34042 ft 383 kts 165°
2026-05-06 16:52 48.15764 0.78161 34120 ft 383 kts 165°
2026-05-06 16:52 48.10602 0.80187 34144 ft 384 kts 165°
2026-05-06 16:53 48.05430 0.82216 34217 ft 384 kts 165°
2026-05-06 16:53 48.00253 0.84243 34231 ft 386 kts 166°
2026-05-06 16:54 47.95063 0.86272 34289 ft 385 kts 166°
2026-05-06 16:54 47.89910 0.88282 34363 ft 385 kts 166°
2026-05-06 16:55 47.84720 0.90302 34385 ft 386 kts 166°
2026-05-06 16:55 47.79528 0.92316 34443 ft 386 kts 166°
2026-05-06 16:56 47.74328 0.94325 34466 ft 387 kts 166°
2026-05-06 16:56 47.69158 0.96321 34524 ft 387 kts 166°
2026-05-06 16:57 47.63944 0.98330 34564 ft 387 kts 166°
2026-05-06 16:57 47.58719 1.00340 34600 ft 388 kts 166°
2026-05-06 16:58 47.53498 1.02344 34625 ft 388 kts 166°
2026-05-06 16:58 47.48305 1.04333 34667 ft 388 kts 166°
2026-05-06 16:59 47.43060 1.06227 34709 ft 387 kts 173°
2026-05-06 16:59 47.37690 1.06418 34739 ft 386 kts 182°
2026-05-06 17:00 47.32351 1.06215 34905 ft 382 kts 183°
2026-05-06 17:00 47.27085 1.06054 34937 ft 380 kts 182°
2026-05-06 17:01 47.21805 1.05926 34942 ft 379 kts 182°
2026-05-06 17:01 47.16531 1.05808 34939 ft 378 kts 182°
2026-05-06 17:02 47.11273 1.05692 34941 ft 378 kts 182°
2026-05-06 17:02 47.06054 1.05577 34942 ft 377 kts 182°
2026-05-06 17:03 47.00806 1.05445 34939 ft 377 kts 182°
2026-05-06 17:03 46.95566 1.05217 34935 ft 377 kts 183°
2026-05-06 17:04 46.90333 1.04975 34938 ft 376 kts 183°
2026-05-06 17:04 46.85139 1.04744 34940 ft 376 kts 183°
2026-05-06 17:05 46.79914 1.04517 34937 ft 376 kts 183°
2026-05-06 17:05 46.74691 1.04291 34942 ft 375 kts 183°
2026-05-06 17:06 46.69469 1.04066 34942 ft 376 kts 183°
2026-05-06 17:06 46.64279 1.03843 34937 ft 376 kts 183°
2026-05-06 17:07 46.59055 1.03619 34944 ft 376 kts 183°
2026-05-06 17:07 46.53824 1.03395 34928 ft 376 kts 183°
2026-05-06 17:08 46.48622 1.04151 34944 ft 378 kts 169°
2026-05-06 17:08 46.43538 1.05894 34932 ft 378 kts 168°
2026-05-06 17:09 46.38416 1.07671 34933 ft 378 kts 168°
2026-05-06 17:09 46.33287 1.09412 34923 ft 379 kts 168°
2026-05-06 17:10 46.28154 1.11129 34928 ft 379 kts 168°
2026-05-06 17:10 46.23052 1.12826 34923 ft 379 kts 168°
2026-05-06 17:11 46.17915 1.14530 34923 ft 379 kts 168°
2026-05-06 17:11 46.12774 1.16232 34924 ft 379 kts 168°
2026-05-06 17:12 46.07633 1.17931 34917 ft 379 kts 168°
2026-05-06 17:12 46.02487 1.19628 34921 ft 379 kts 168°
2026-05-06 17:13 45.97377 1.21310 34910 ft 379 kts 168°
2026-05-06 17:13 45.92232 1.23001 34910 ft 379 kts 169°
2026-05-06 17:14 45.87091 1.24687 34917 ft 379 kts 169°
2026-05-06 17:14 45.81944 1.26372 34909 ft 379 kts 169°
2026-05-06 17:15 45.76836 1.28041 34912 ft 379 kts 169°
2026-05-06 17:15 45.71688 1.29719 34910 ft 379 kts 169°
2026-05-06 17:16 45.66543 1.31394 34908 ft 379 kts 169°
2026-05-06 17:16 45.61391 1.33068 34907 ft 380 kts 169°
2026-05-06 17:17 45.56274 1.34728 34898 ft 380 kts 169°
2026-05-06 17:17 45.51120 1.36397 34905 ft 380 kts 169°
2026-05-06 17:18 45.45967 1.38061 34908 ft 380 kts 169°
2026-05-06 17:18 45.40848 1.39711 34910 ft 380 kts 169°
2026-05-06 17:19 45.35698 1.41369 34909 ft 379 kts 169°
2026-05-06 17:19 45.30548 1.43024 34910 ft 380 kts 169°
2026-05-06 17:20 45.25394 1.44678 34906 ft 380 kts 169°
2026-05-06 17:20 45.20276 1.46317 34911 ft 379 kts 169°
2026-05-06 17:21 45.15129 1.47962 34906 ft 379 kts 169°
2026-05-06 17:21 45.09979 1.49606 34907 ft 379 kts 169°
2026-05-06 17:22 45.04837 1.51243 34921 ft 379 kts 170°
2026-05-06 17:22 44.99693 1.52879 34913 ft 379 kts 170°
2026-05-06 17:23 44.94575 1.54502 34910 ft 379 kts 170°
2026-05-06 17:23 44.89424 1.56134 34917 ft 379 kts 170°
2026-05-06 17:24 44.84271 1.57763 34912 ft 379 kts 170°
2026-05-06 17:24 44.79114 1.59390 34920 ft 380 kts 170°
2026-05-06 17:25 44.73987 1.61005 34911 ft 380 kts 170°
2026-05-06 17:25 44.68830 1.62627 34920 ft 380 kts 170°
2026-05-06 17:26 44.63677 1.64244 34918 ft 380 kts 170°
2026-05-06 17:26 44.58523 1.65859 34912 ft 379 kts 170°
2026-05-06 17:27 44.53380 1.67468 34917 ft 379 kts 170°
2026-05-06 17:27 44.48266 1.69064 34932 ft 379 kts 170°
2026-05-06 17:28 44.43122 1.70667 34929 ft 379 kts 170°
2026-05-06 17:28 44.37976 1.72268 34926 ft 379 kts 171°
2026-05-06 17:29 44.32833 1.73866 34932 ft 379 kts 171°
2026-05-06 17:29 44.27706 1.75374 34932 ft 379 kts 173°
2026-05-06 17:30 44.22495 1.76516 34926 ft 379 kts 175°
2026-05-06 17:30 44.17285 1.77614 34933 ft 378 kts 175°
2026-05-06 17:31 44.12072 1.78743 34914 ft 381 kts 175°
2026-05-06 17:31 44.06757 1.79904 34697 ft 402 kts 174°
2026-05-06 17:31 44.03945 1.80520 34494 ft 415 kts 174°
2026-05-06 17:32 44.01050 1.81156 34267 ft 428 kts 175°
2026-05-06 17:32 43.98064 1.81811 34066 ft 440 kts 175°
2026-05-06 17:32 43.95003 1.82468 33839 ft 449 kts 176°
2026-05-06 17:32 43.91893 1.82929 33561 ft 449 kts 179°
2026-05-06 17:33 43.88749 1.83234 33311 ft 459 kts 180°
2026-05-06 17:33 43.85582 1.83483 33067 ft 467 kts 180°
2026-05-06 17:33 43.82318 1.83738 32976 ft 469 kts 180°
2026-05-06 17:34 43.75832 1.84306 32943 ft 465 kts 180°
2026-05-06 17:34 43.69380 1.84923 32968 ft 465 kts 180°
2026-05-06 17:35 43.62906 1.85553 32976 ft 467 kts 180°
2026-05-06 17:35 43.56472 1.86177 32955 ft 466 kts 180°
2026-05-06 17:36 43.46769 1.87113 32958 ft 465 kts 180°
2026-05-06 17:36 43.40312 1.87734 32921 ft 465 kts 181°
2026-05-06 17:37 43.33873 1.88351 32945 ft 463 kts 181°
2026-05-06 17:37 43.27493 1.88963 32954 ft 462 kts 181°
2026-05-06 17:38 43.21079 1.89580 32947 ft 462 kts 181°
2026-05-06 17:38 43.14662 1.90196 32959 ft 462 kts 181°
2026-05-06 17:39 43.08259 1.90809 32968 ft 461 kts 181°
2026-05-06 17:39 43.01907 1.91415 32967 ft 459 kts 181°
2026-05-06 17:40 42.95556 1.92023 32970 ft 455 kts 182°
2026-05-06 17:40 42.89264 1.92623 32960 ft 453 kts 182°
2026-05-06 17:41 42.82982 1.93217 32975 ft 451 kts 182°
2026-05-06 17:41 42.76771 1.93805 32977 ft 451 kts 182°
2026-05-06 17:42 42.70515 1.94396 32973 ft 451 kts 182°
2026-05-06 17:42 42.64260 1.95202 32983 ft 453 kts 178°
2026-05-06 17:43 42.59061 1.96270 32948 ft 455 kts 177°
2026-05-06 17:43 42.51754 1.97800 32971 ft 455 kts 178°
2026-05-06 17:44 42.45531 1.99048 32947 ft 455 kts 178°
2026-05-06 17:44 42.40330 2.00079 32948 ft 455 kts 178°
2026-05-06 17:45 42.34079 2.01166 32933 ft 451 kts 181°
2026-05-06 17:45 42.26824 2.01842 32938 ft 449 kts 182°
2026-05-06 17:46 42.20588 2.02375 32925 ft 449 kts 182°
2026-05-06 17:46 42.15412 2.02849 32914 ft 448 kts 182°
2026-05-06 17:47 42.09192 2.03441 32919 ft 448 kts 182°
2026-05-06 17:47 42.01960 2.04135 32914 ft 448 kts 182°
2026-05-06 17:48 41.96792 2.04631 32890 ft 448 kts 182°
2026-05-06 17:48 41.90690 2.05213 32913 ft 447 kts 182°
2026-05-06 17:49 41.84480 2.05804 32920 ft 447 kts 182°
2026-05-06 17:49 41.78265 2.06393 32927 ft 448 kts 182°
2026-05-06 17:50 41.72082 2.06980 32918 ft 446 kts 182°
2026-05-06 17:50 41.65926 2.07560 32927 ft 446 kts 182°
2026-05-06 17:51 41.59737 2.08130 32944 ft 446 kts 183°
2026-05-06 17:51 41.53547 2.08700 32920 ft 446 kts 183°
2026-05-06 17:52 41.47366 2.09269 32938 ft 445 kts 183°
2026-05-06 17:52 41.41277 2.09834 32915 ft 431 kts 183°
2026-05-06 17:53 41.38337 2.10112 32917 ft 414 kts 183°
2026-05-06 17:53 41.35518 2.10373 32914 ft 399 kts 184°
2026-05-06 17:53 41.32777 2.10623 32584 ft 392 kts 184°
2026-05-06 17:53 41.30075 2.10881 32280 ft 387 kts 183°
2026-05-06 17:54 41.27406 2.11260 31956 ft 384 kts 182°
2026-05-06 17:54 41.24763 2.11709 31567 ft 381 kts 181°
2026-05-06 17:54 41.22181 2.12169 31206 ft 379 kts 181°
2026-05-06 17:54 41.19562 2.12632 30853 ft 381 kts 181°
2026-05-06 17:55 41.16929 2.13089 30473 ft 382 kts 181°
2026-05-06 17:55 41.14303 2.13541 30093 ft 379 kts 181°
2026-05-06 17:55 41.11697 2.13986 29667 ft 376 kts 181°
2026-05-06 17:55 41.09117 2.14424 29270 ft 371 kts 182°
2026-05-06 17:56 41.06600 2.14849 28883 ft 367 kts 182°
2026-05-06 17:56 41.04082 2.15272 28498 ft 363 kts 182°
2026-05-06 17:56 41.01588 2.15689 28127 ft 360 kts 182°
2026-05-06 17:56 40.99107 2.16102 27733 ft 358 kts 181°
2026-05-06 17:57 40.96678 2.16505 27363 ft 357 kts 181°
2026-05-06 17:57 40.94199 2.16913 26996 ft 361 kts 181°
2026-05-06 17:57 40.91702 2.17325 26615 ft 361 kts 181°
2026-05-06 17:57 40.89212 2.17739 26231 ft 359 kts 181°
2026-05-06 17:58 40.86747 2.18151 25837 ft 356 kts 181°
2026-05-06 17:58 40.84298 2.18559 25482 ft 353 kts 180°
2026-05-06 17:58 40.81867 2.18964 25123 ft 351 kts 180°
2026-05-06 17:58 40.79453 2.19364 24763 ft 349 kts 180°
2026-05-06 17:59 40.77080 2.19756 24412 ft 348 kts 181°
2026-05-06 17:59 40.74706 2.19816 24151 ft 335 kts 193°
2026-05-06 17:59 40.72442 2.19203 23947 ft 332 kts 203°
2026-05-06 17:59 40.70244 2.18227 23724 ft 335 kts 205°
2026-05-06 18:00 40.68032 2.17212 23489 ft 337 kts 204°
2026-05-06 18:00 40.65823 2.16196 23212 ft 335 kts 205°
2026-05-06 18:00 40.63621 2.15190 22935 ft 334 kts 204°
2026-05-06 18:00 40.61428 2.14192 22665 ft 333 kts 204°
2026-05-06 18:01 40.59244 2.13202 22393 ft 332 kts 204°
2026-05-06 18:01 40.57063 2.12217 22125 ft 331 kts 204°
2026-05-06 18:01 40.54916 2.11250 21867 ft 330 kts 204°
2026-05-06 18:01 40.52746 2.10273 21604 ft 329 kts 204°
2026-05-06 18:02 40.50579 2.09300 21348 ft 329 kts 204°
2026-05-06 18:02 40.48418 2.08330 21093 ft 328 kts 204°
2026-05-06 18:02 40.46263 2.07364 20972 ft 328 kts 204°
2026-05-06 18:02 40.44103 2.06397 20931 ft 326 kts 204°
2026-05-06 18:03 40.41963 2.05440 20924 ft 324 kts 204°
2026-05-06 18:03 40.39827 2.04485 20927 ft 325 kts 204°
2026-05-06 18:03 40.37684 2.03526 20929 ft 326 kts 204°
2026-05-06 18:03 40.35539 2.02567 20924 ft 326 kts 204°
2026-05-06 18:04 40.33390 2.01608 20930 ft 326 kts 204°
2026-05-06 18:04 40.31244 2.00651 20929 ft 326 kts 204°
2026-05-06 18:04 40.29123 1.99706 20929 ft 326 kts 204°
2026-05-06 18:04 40.26975 1.98749 20930 ft 326 kts 204°
2026-05-06 18:05 40.24829 1.97794 20926 ft 326 kts 204°
2026-05-06 18:05 40.22678 1.96837 20905 ft 326 kts 204°
2026-05-06 18:05 40.20537 1.95886 20920 ft 326 kts 204°
2026-05-06 18:05 40.18386 1.94931 20926 ft 326 kts 204°
2026-05-06 18:06 40.16241 1.93978 20934 ft 326 kts 204°
2026-05-06 18:06 40.14090 1.93024 20910 ft 327 kts 204°
2026-05-06 18:06 40.11951 1.91994 20731 ft 326 kts 209°
2026-05-06 18:06 40.09944 1.90667 20498 ft 322 kts 212°
2026-05-06 18:07 40.08004 1.89289 20252 ft 320 kts 213°
2026-05-06 18:07 40.06059 1.87888 20006 ft 319 kts 213°
2026-05-06 18:07 40.04116 1.86493 19757 ft 318 kts 213°
2026-05-06 18:07 40.02179 1.85111 19517 ft 317 kts 213°
2026-05-06 18:08 40.00243 1.83739 19262 ft 317 kts 212°
2026-05-06 18:08 39.98306 1.82373 19024 ft 316 kts 212°
2026-05-06 18:08 39.96371 1.81014 18789 ft 316 kts 212°
2026-05-06 18:08 39.94434 1.79658 18554 ft 316 kts 212°
2026-05-06 18:09 39.92501 1.78306 18324 ft 316 kts 212°
2026-05-06 18:09 39.90566 1.76956 18066 ft 315 kts 212°
2026-05-06 18:09 39.88657 1.75625 17791 ft 315 kts 212°
2026-05-06 18:09 39.86725 1.74280 17551 ft 315 kts 212°
2026-05-06 18:10 39.84792 1.72935 17273 ft 315 kts 212°
2026-05-06 18:10 39.82862 1.71593 17012 ft 314 kts 212°
2026-05-06 18:10 39.80934 1.70254 16758 ft 314 kts 212°
2026-05-06 18:10 39.79006 1.68915 16477 ft 314 kts 211°
2026-05-06 18:11 39.77085 1.67582 16216 ft 313 kts 211°
2026-05-06 18:11 39.75165 1.66251 15961 ft 312 kts 211°
2026-05-06 18:11 39.73248 1.64924 15712 ft 312 kts 211°
2026-05-06 18:11 39.71336 1.63600 15466 ft 311 kts 211°
2026-05-06 18:12 39.69429 1.62280 15218 ft 310 kts 211°
2026-05-06 18:12 39.67528 1.60966 14973 ft 309 kts 211°
2026-05-06 18:12 39.65631 1.59655 14731 ft 308 kts 211°
2026-05-06 18:12 39.63740 1.58349 14489 ft 307 kts 211°
2026-05-06 18:13 39.61853 1.57046 14250 ft 307 kts 211°
2026-05-06 18:13 39.59997 1.55767 14015 ft 306 kts 211°
2026-05-06 18:13 39.58119 1.54472 13781 ft 305 kts 211°
2026-05-06 18:13 39.56246 1.53181 13510 ft 305 kts 210°
2026-05-06 18:14 39.54371 1.51890 13244 ft 305 kts 211°
2026-05-06 18:14 39.52501 1.50604 13018 ft 304 kts 211°
2026-05-06 18:14 39.50637 1.49322 12958 ft 305 kts 211°
2026-05-06 18:14 39.48764 1.48034 12814 ft 305 kts 210°
2026-05-06 18:15 39.46890 1.46747 12539 ft 304 kts 210°
2026-05-06 18:15 39.45033 1.45473 12269 ft 300 kts 210°
2026-05-06 18:15 39.43230 1.44237 12006 ft 296 kts 210°
2026-05-06 18:15 39.41424 1.42999 11758 ft 292 kts 210°
2026-05-06 18:16 39.39641 1.41778 11512 ft 290 kts 210°
2026-05-06 18:16 39.37860 1.40558 11252 ft 289 kts 210°
2026-05-06 18:16 39.36087 1.39344 11005 ft 288 kts 210°
2026-05-06 18:16 39.34315 1.38132 10765 ft 288 kts 210°
2026-05-06 18:17 39.32546 1.36922 10523 ft 287 kts 210°
2026-05-06 18:17 39.30780 1.35715 10279 ft 287 kts 211°
2026-05-06 18:17 39.29034 1.34523 10046 ft 287 kts 210°
2026-05-06 18:17 39.27268 1.33318 9805 ft 287 kts 210°
2026-05-06 18:18 39.25500 1.32111 9538 ft 287 kts 210°
2026-05-06 18:18 39.23734 1.30908 9271 ft 287 kts 210°
2026-05-06 18:18 39.21969 1.29705 9018 ft 287 kts 210°
2026-05-06 18:18 39.20205 1.28504 8767 ft 286 kts 210°
2026-05-06 18:19 39.18445 1.27306 8503 ft 286 kts 210°
2026-05-06 18:19 39.16686 1.26111 8252 ft 285 kts 209°
2026-05-06 18:19 39.14957 1.24936 8002 ft 284 kts 210°
2026-05-06 18:19 39.13209 1.23749 7748 ft 283 kts 210°
2026-05-06 18:20 39.11472 1.22568 7491 ft 282 kts 210°
2026-05-06 18:20 39.09740 1.21393 7249 ft 281 kts 208°
2026-05-06 18:20 39.08015 1.20223 6999 ft 280 kts 208°
2026-05-06 18:20 39.06299 1.19059 6764 ft 279 kts 208°
2026-05-06 18:21 39.04586 1.17898 6521 ft 278 kts 208°
2026-05-06 18:21 39.02882 1.16744 6283 ft 276 kts 208°
2026-05-06 18:21 39.01183 1.15594 6020 ft 276 kts 207°
2026-05-06 18:21 38.99513 1.14464 5771 ft 275 kts 207°
2026-05-06 18:22 38.97825 1.13323 5518 ft 274 kts 207°
2026-05-06 18:22 38.96077 1.12389 5248 ft 272 kts 192°
2026-05-06 18:22 38.94230 1.11982 5017 ft 268 kts 187°
2026-05-06 18:22 38.92394 1.11646 4766 ft 265 kts 187°
2026-05-06 18:23 38.90572 1.11326 4514 ft 263 kts 186°
2026-05-06 18:23 38.88765 1.11000 4254 ft 261 kts 187°
2026-05-06 18:23 38.86977 1.10681 4059 ft 257 kts 186°
2026-05-06 18:23 38.85233 1.10362 3896 ft 251 kts 186°
2026-05-06 18:24 38.83505 1.10026 3632 ft 250 kts 187°
2026-05-06 18:24 38.81812 1.09703 3392 ft 248 kts 186°
2026-05-06 18:24 38.80109 1.09368 3139 ft 247 kts 187°
2026-05-06 18:24 38.78415 1.09036 2887 ft 245 kts 186°
2026-05-06 18:25 38.76732 1.08702 2638 ft 244 kts 187°
2026-05-06 18:25 38.75076 1.08374 2520 ft 237 kts 186°
2026-05-06 18:25 38.73475 1.08105 2481 ft 226 kts 181°
2026-05-06 18:25 38.72035 1.08526 2480 ft 207 kts 141°
2026-05-06 18:26 38.71300 1.09957 2475 ft 189 kts 96°
2026-05-06 18:26 38.71610 1.11467 2488 ft 181 kts 49°
2026-05-06 18:26 38.72637 1.12373 2499 ft 184 kts 32°
2026-05-06 18:26 38.73748 1.13180 2507 ft 183 kts 32°
2026-05-06 18:27 38.74856 1.13979 2498 ft 182 kts 32°
2026-05-06 18:27 38.75956 1.14765 2491 ft 181 kts 32°
2026-05-06 18:27 38.77073 1.15546 2510 ft 187 kts 30°
2026-05-06 18:27 38.78214 1.16363 2492 ft 188 kts 33°
2026-05-06 18:28 38.79091 1.17531 2493 ft 180 kts 63°
2026-05-06 18:28 38.79684 1.18931 2502 ft 179 kts 63°
2026-05-06 18:28 38.80275 1.20301 2493 ft 180 kts 63°
2026-05-06 18:28 38.80867 1.21722 2418 ft 184 kts 63°
2026-05-06 18:29 38.81454 1.23147 2211 ft 175 kts 64°
2026-05-06 18:29 38.81997 1.24467 2031 ft 157 kts 63°
2026-05-06 18:29 38.82489 1.25665 1790 ft 145 kts 64°
2026-05-06 18:29 38.82937 1.26754 1650 ft 137 kts 64°
2026-05-06 18:30 38.83383 1.27846 1446 ft 137 kts 64°
2026-05-06 18:30 38.83814 1.28914 1268 ft 135 kts 65°
2026-05-06 18:30 38.84256 1.29968 1027 ft 133 kts 64°
2026-05-06 18:30 38.84689 1.31027 899 ft 135 kts 65°
2026-05-06 18:31 38.85116 1.32033 736 ft 134 kts 64°
2026-05-06 18:31 38.85547 1.33073 554 ft 134 kts 65°
2026-05-06 18:31 38.85978 1.34130 361 ft 137 kts 67°
2026-05-06 18:31 38.86419 1.35209 193 ft 134 kts 65°
2026-05-06 18:32 38.86852 1.36260 24 ft 131 kts 65°
2026-05-06 18:32 38.87233 1.37188 12 ft 100 kts 63°
2026-05-06 18:32 38.87499 1.37774 10 ft 32 kts 41°
2026-05-06 18:32 38.87666 1.37904 8 ft 15 kts 352°
2026-05-06 18:33 38.87676 1.37797 9 ft 15 kts 231°
2026-05-06 18:33 38.87624 1.37686 8 ft 14 kts 239°
2026-05-06 18:33 38.87587 1.37597 8 ft 0 kts 243°
2026-05-06 18:34 38.87587 1.37580 8 ft 5 kts 276°
2026-05-06 18:34 38.87623 1.37532 8 ft 11 kts 333°
2026-05-06 18:35 38.87691 1.37463 7 ft 15 kts 299°
2026-05-06 18:35 38.87658 1.37331 7 ft 18 kts 238°
2026-05-06 18:35 38.87606 1.37207 8 ft 16 kts 243°
2026-05-06 18:35 38.87556 1.37089 7 ft 13 kts 241°
2026-05-06 18:36 38.87513 1.36979 10 ft 7 kts 243°
2026-05-06 18:36 38.87525 1.36946 7 ft 5 kts 327°
2026-05-06 18:36 38.87550 1.36927 7 ft 3 kts 332°
2026-05-06 18:36 38.87562 1.36920 7 ft 0 kts 332°
2026-05-06 18:37 38.87563 1.36919 7 ft 0 kts 334°